YMAV 232000Z AUTO 00000KT 0450 FG BKN001 BKN005 03/02 Q1028

Station Name: Melbourne Gliding Club - YBSS

Location: Parwan, VIC, Australia
Last Updated on Nov 22 2021, 8:28 pm AEDT
 
Wind Direction: North ** SUSPECT READING **
Wind Degrees: 360 ** SUSPECT READING **
Wind Speed (kts): 5
Wind 10 min AVG (kts): 5
Wind 10 min gust (kts): 7
Estimated Cloudbase (dewpoint) QNH : 2050 feet
Temperature (C): 15.3
Dewpoint (C): 12.2
Soil temp (C): 23.3
UV index: 0.0
.
Temperature HIGH (day): 22.3 at 12:19pm
Temperature LOW (day): 8.9 at 5:05am
Humidity: 82% Feels like: 15.0
Barometer: 1000.9 mb Steady
Solar radiation (W/m2): 0
------- .
Sunrise: 12:57am
Sunset: 10:53am
Rain past 24hrs: 0 mm
Seaonal total: 327.7 mm
Soil temp (C): 23.3
Soil moisture* (cb): 23 (1-4 use sealed areas, 10+ is dry)


TAF AMD YMAV 231658Z 2316/2418 VRB03KT 0500 FG NSC FM232300 VRB03KT 6000 HZ NSC FM240100 10008KT CAVOK FM240500 05005KT CAVOK PROB30 2323/2400 0300 FG

YMAV 232000Z AUTO 00000KT 0450 FG BKN001 BKN005 03/02 Q1028